CW4141 Weather Reports


Display with metric or nautical units.
time (UTC)temp
F
wind
direction
speed
MPH
gust
MPH
rain 1hr
in
rain 24hr
in
rain mn
in
humidity
%
barometer
mb
20260904101604 58 0 0.0 0.0 0.00 0.00 0.00 85 1013.7
20260904101515 58 132 0.0 0.0 0.00 0.00 0.00 85 1010.0
20260904100057 58 0 0.0 0.0 0.00 0.00 0.00 85 1013.8
20260904100015 58 132 0.0 0.0 0.00 0.00 0.00 85 1010.0
20260904094557 58 0 0.0 0.0 0.00 0.00 0.00 85 1013.7
20260904094513 58 132 0.0 0.0 0.00 0.00 0.00 85 1010.0
20260904093109 59 0 0.0 0.0 0.00 0.00 0.00 85 1013.7
20260904093025 59 132 0.0 0.0 0.00 0.00 0.00 85 1010.1
20260904091559 59 0 0.0 0.0 0.00 0.00 0.00 85 1013.6
20260904091507 59 132 0.0 0.0 0.00 0.00 0.00 86 1010.0
20260904090057 60 0 0.0 0.0 0.00 0.00 0.00 85 1013.6
20260904090005 60 132 0.0 0.0 0.00 0.00 0.00 86 1010.1
20260904084604 60 0 0.0 0.0 0.00 0.00 0.00 85 1013.7
20260904084504 60 132 0.0 0.0 0.00 0.00 0.00 86 1010.1
20260904083102 60 0 0.0 0.0 0.00 0.00 0.00 85 1013.8
20260904083002 60 132 0.0 0.0 0.00 0.00 0.00 85 1010.2
20260904081559 60 0 0.0 0.0 0.00 0.00 0.00 85 1013.9
20260904081504 60 132 0.0 0.0 0.00 0.00 0.00 85 1010.4
20260904080110 61 0 0.0 1.0 0.00 0.00 0.00 85 1014.0
20260904080100 61 132 0.0 1.0 0.00 0.00 0.00 85 1010.6
20260904074636 61 0 0.0 0.0 0.00 0.00 0.00 84 1014.1
20260904074558 61 132 0.0 0.0 0.00 0.00 0.00 84 1010.5
20260904073101 61 0 0.0 0.0 0.00 0.00 0.00 84 1014.1
20260904071601 62 0 0.0 0.0 0.00 0.00 0.00 83 1014.1
20260904071559 62 132 0.0 0.0 0.00 0.00 0.00 84 1010.5
20260904070059 62 0 0.0 0.0 0.00 0.00 0.00 82 1014.0
20260904070053 62 132 0.0 0.0 0.00 0.00 0.00 83 1010.4
20260904064604 62 0 0.0 0.0 0.00 0.00 0.00 81 1014.0
20260904064553 62 132 0.0 0.0 0.00 0.00 0.00 82 1010.2
20260904063111 62 0 0.0 0.0 0.00 0.00 0.00 81 1014.0
20260904063054 62 132 0.0 0.0 0.00 0.00 0.00 82 1010.2
20260904061602 62 0 0.0 2.0 0.00 0.00 0.00 81 1014.0
20260904061600 62 132 0.0 0.0 0.00 0.00 0.00 82 1010.2
20260904060113 63 0 0.0 0.0 0.00 0.00 0.00 80 1014.0
20260904060052 63 132 0.0 0.0 0.00 0.00 0.00 81 1010.3
20260904054556 63 132 0.0 1.0 0.00 0.00 0.00 80 1010.5
20260904053122 63 132 0.0 1.0 0.00 0.00 0.00 78 1010.5
20260904053101 63 0 0.0 1.0 0.00 0.00 0.00 78 1014.1
20260904051558 64 0 0.0 1.0 0.00 0.00 0.00 77 1014.2
20260904051555 64 132 0.0 1.0 0.00 0.00 0.00 78 1010.6
20260904050057 64 0 0.0 2.0 0.00 0.00 0.00 76 1014.4
20260904050051 64 132 0.0 2.0 0.00 0.00 0.00 77 1010.6
20260904044555 65 0 0.0 2.0 0.00 0.00 0.00 75 1014.2
20260904044552 65 132 0.0 2.0 0.00 0.00 0.00 75 1010.6
20260904043100 65 132 0.0 2.0 0.00 0.00 0.00 72 1014.2
20260904043051 65 132 0.0 2.0 0.00 0.00 0.00 72 1010.6
20260904041559 66 132 0.0 3.0 0.00 0.00 0.00 70 1014.1
20260904040059 66 0 0.0 3.0 0.00 0.00 0.00 68 1013.8
20260904040048 66 132 0.0 3.0 0.00 0.00 0.00 68 1010.1
20260904034615 67 0 0.0 3.0 0.00 0.00 0.00 65 1013.5
20260904034548 67 132 0.0 3.0 0.00 0.00 0.00 65 1010.0
20260904033100 67 132 1.0 3.0 0.00 0.00 0.00 62 1013.5
20260904031557 68 0 0.0 3.0 0.00 0.00 0.00 63 1013.3
20260904031546 68 132 0.0 3.0 0.00 0.00 0.00 64 1009.5
20260904030055 68 146 0.0 5.0 0.00 0.00 0.00 61 1013.1
20260904030046 68 146 1.0 4.0 0.00 0.00 0.00 62 1009.4
20260904024602 69 186 1.0 4.0 0.00 0.00 0.00 58 1013.0
20260904024546 69 186 0.0 3.0 0.00 0.00 0.00 59 1009.2
20260904023107 70 184 1.0 5.0 0.00 0.00 0.00 56 1013.0
20260904023048 70 184 1.0 5.0 0.00 0.00 0.00 56 1009.1
20260904021557 71 0 1.0 3.0 0.00 0.00 0.00 53 1012.8
20260904021545 71 184 0.0 3.0 0.00 0.00 0.00 53 1009.1
20260904020057 72 0 1.0 7.0 0.00 0.00 0.00 49 1012.8
20260904014618 73 180 1.0 4.0 0.00 0.00 0.00 50 1009.1
20260904014604 73 180 0.0 4.0 0.00 0.00 0.00 49 1012.9
20260904013058 74 138 0.0 6.0 0.00 0.00 0.00 51 1012.9
20260904013044 74 138 0.0 6.0 0.00 0.00 0.00 51 1009.2
20260904011559 75 185 1.0 6.0 0.00 0.00 0.00 48 1012.9
20260904011543 75 185 1.0 6.0 0.00 0.00 0.00 49 1009.1
20260904010101 76 0 3.0 7.0 0.00 0.00 0.00 45 1012.8
20260904010043 76 219 2.0 7.0 0.00 0.00 0.00 46 1008.9
20260904004600 78 213 1.0 7.0 0.00 0.00 0.00 42 1012.9
20260904004541 78 213 1.0 7.0 0.00 0.00 0.00 43 1008.9
20260904003100 78 0 0.0 7.0 0.00 0.00 0.00 41 1012.7
20260904003050 78 188 0.0 7.0 0.00 0.00 0.00 42 1009.0
20260904001611 79 0 1.0 8.0 0.00 0.00 0.00 40 1012.4
20260904001541 79 222 1.0 8.0 0.00 0.00 0.00 40 1009.0
20260904000136 80 151 2.0 11.0 0.00 0.00 0.00 38 1012.7
20260904000042 80 151 2.0 10.0 0.00 0.00 0.00 39 1008.9
20260903234604 81 187 3.0 12.0 0.00 0.00 0.00 38 1012.5
20260903234539 81 187 4.0 11.0 0.00 0.00 0.00 38 1009.0
20260903233102 82 211 4.0 12.0 0.00 0.00 0.00 32 1012.7
20260903233038 82 214 3.0 11.0 0.00 0.00 0.00 32 1009.2
20260903231610 83 169 3.0 8.0 0.00 0.00 0.00 33 1012.8
20260903231537 83 138 2.0 8.0 0.00 0.00 0.00 34 1009.3
20260903230114 85 200 3.0 9.0 0.00 0.00 0.00 31 1012.9
20260903230048 85 213 3.0 8.0 0.00 0.00 0.00 32 1009.3
20260903224610 86 205 2.0 9.0 0.00 0.00 0.00 28 1012.9
20260903224533 86 205 2.0 8.0 0.00 0.00 0.00 28 1009.3
20260903223059 87 215 2.0 7.0 0.00 0.00 0.00 27 1012.9
20260903223033 87 215 2.0 7.0 0.00 0.00 0.00 28 1009.4
20260903221556 87 139 3.0 8.0 0.00 0.00 0.00 27 1013.0
20260903221532 87 140 3.0 8.0 0.00 0.00 0.00 28 1009.4
20260903220121 88 0 2.0 9.0 0.00 0.00 0.00 28 1013.2
20260903220031 88 194 3.0 9.0 0.00 0.00 0.00 28 1009.4
20260903214604 88 0 1.0 8.0 0.00 0.00 0.00 28 1013.3
20260903214540 88 160 1.0 6.0 0.00 0.00 0.00 29 1009.9
20260903213101 87 119 2.0 7.0 0.00 0.00 0.00 27 1013.5
20260903213029 87 119 2.0 7.0 0.00 0.00 0.00 28 1009.9
20260903211618 87 216 0.0 6.0 0.00 0.00 0.00 30 1013.6
20260903211528 87 216 0.0 6.0 0.00 0.00 0.00 30 1009.9
20260903210113 87 140 3.0 8.0 0.00 0.00 0.00 30 1013.7
20260903210027 87 138 3.0 7.0 0.00 0.00 0.00 30 1009.9
20260903204603 88 188 1.0 5.0 0.00 0.00 0.00 30 1013.7
20260903204528 88 188 1.0 5.0 0.00 0.00 0.00 30 1010.0
20260903203059 88 0 1.0 5.0 0.00 0.00 0.00 29 1013.7
20260903203025 88 221 2.0 5.0 0.00 0.00 0.00 29 1010.2
20260903201556 87 230 0.0 7.0 0.00 0.00 0.00 30 1013.8
20260903201530 87 185 0.0 4.0 0.00 0.00 0.00 30 1010.4
20260903200101 87 188 0.0 4.0 0.00 0.00 0.00 32 1013.9
20260903200020 87 188 1.0 4.0 0.00 0.00 0.00 32 1010.5
20260903194559 86 188 1.0 5.0 0.00 0.00 0.00 32 1014.2
20260903194518 86 188 1.0 5.0 0.00 0.00 0.00 33 1010.6
20260903193057 85 187 0.0 7.0 0.00 0.00 0.00 33 1014.4
20260903193015 85 187 0.0 7.0 0.00 0.00 0.00 34 1011.0
20260903191600 84 254 0.0 4.0 0.00 0.00 0.00 33 1014.7
20260903191510 84 304 0.0 4.0 0.00 0.00 0.00 34 1011.1
20260903190059 83 310 0.0 3.0 0.00 0.00 0.00 33 1015.0
20260903190008 83 313 0.0 6.0 0.00 0.00 0.00 34 1011.6
20260903184602 83 184 0.0 3.0 0.00 0.00 0.00 36 1015.4
20260903184505 82 199 0.0 3.0 0.00 0.00 0.00 36 1011.8
20260903183105 81 200 0.0 3.0 0.00 0.00 0.00 45 1011.9
20260903183055 81 200 0.0 3.0 0.00 0.00 0.00 45 1015.3
20260903181605 80 202 1.0 4.0 0.00 0.00 0.00 43 1012.1
20260903181558 80 202 0.0 3.0 0.00 0.00 0.00 43 1015.6
20260903180108 79 0 2.0 6.0 0.00 0.00 0.00 43 1015.7
20260903180100 79 217 1.0 5.0 0.00 0.00 0.00 44 1012.1
20260903174611 78 163 0.0 4.0 0.00 0.00 0.00 44 1015.8
20260903174548 78 163 0.0 3.0 0.00 0.00 0.00 45 1012.1
20260903173059 76 0 0.0 4.0 0.00 0.00 0.00 49 1015.8
20260903173051 76 163 0.0 3.0 0.00 0.00 0.00 50 1012.2
20260903171603 75 171 0.0 4.0 0.00 0.00 0.00 51 1015.8
20260903171539 75 171 1.0 3.0 0.00 0.00 0.00 51 1012.1
20260903170110 73 0 0.0 6.0 0.00 0.00 0.00 55 1015.7
20260903170104 73 169 0.0 2.0 0.00 0.00 0.00 56 1012.2
20260903164605 72 155 0.0 3.0 0.00 0.00 0.00 56 1015.7
20260903164534 72 155 0.0 3.0 0.00 0.00 0.00 56 1012.3
20260903163114 70 0 0.0 5.0 0.00 0.00 0.00 58 1015.8
20260903163026 70 155 0.0 4.0 0.00 0.00 0.00 58 1012.4
20260903161559 68 154 0.0 3.0 0.00 0.00 0.00 59 1015.8
20260903161527 68 154 0.0 3.0 0.00 0.00 0.00 60 1012.3
20260903160058 65 0 0.0 3.0 0.00 0.00 0.00 65 1016.0
20260903160016 65 154 0.0 3.0 0.00 0.00 0.00 66 1012.5
20260903154559 62 154 0.0 2.0 0.00 0.00 0.00 75 1015.9
20260903154513 62 154 0.0 2.0 0.00 0.00 0.00 76 1012.6
20260903153105 60 0 0.0 1.0 0.00 0.00 0.00 87 1016.2
20260903153011 59 154 0.0 0.0 0.00 0.00 0.00 88 1012.7
20260903151601 58 0 0.0 0.0 0.00 0.00 0.00 89 1016.2
20260903151509 58 154 0.0 0.0 0.00 0.00 0.00 90 1012.7
20260903150112 56 0 0.0 0.0 0.00 0.00 0.00 89 1016.2
20260903150011 56 154 0.0 0.0 0.00 0.00 0.00 89 1012.7
20260903144558 55 0 0.0 0.0 0.00 0.00 0.00 88 1016.0
20260903144505 55 154 0.0 0.0 0.00 0.00 0.00 89 1012.5
20260903143055 55 0 0.0 0.0 0.00 0.00 0.00 88 1015.9
20260903143004 55 154 0.0 0.0 0.00 0.00 0.00 88 1012.3
20260903141553 55 0 0.0 0.0 0.00 0.00 0.00 87 1015.7
20260903141503 55 154 0.0 0.0 0.00 0.00 0.00 88 1012.2
20260903140103 55 0 0.0 0.0 0.00 0.00 0.00 87 1015.6
20260903140003 55 154 0.0 0.0 0.00 0.00 0.00 88 1012.0
20260903134559 53 0 0.0 0.0 0.00 0.00 0.00 85 1015.4
20260903133057 53 154 0.0 0.0 0.00 0.00 0.00 84 1011.7
20260903131605 53 154 0.0 0.0 0.00 0.00 0.00 83 1011.7
20260903130116 54 0 0.0 0.0 0.00 0.00 0.00 83 1015.2
20260903130057 54 154 0.0 0.0 0.00 0.00 0.00 83 1011.7
20260903124602 54 0 0.0 0.0 0.00 0.00 0.00 83 1015.2
20260903124553 54 154 0.0 0.0 0.00 0.00 0.00 83 1011.7
20260903123057 54 0 0.0 0.0 0.00 0.00 0.00 82 1015.2
20260903123054 54 154 0.0 0.0 0.00 0.00 0.00 83 1011.7
20260903121623 54 0 0.0 0.0 0.00 0.00 0.00 82 1015.3
20260903121552 54 154 0.0 0.0 0.00 0.00 0.00 83 1011.7
20260903120056 55 0 0.0 0.0 0.00 0.00 0.00 82 1015.4
20260903120053 55 154 0.0 0.0 0.00 0.00 0.00 83 1011.7
20260903114603 55 154 0.0 0.0 0.00 0.00 0.00 83 1011.9
20260903114557 55 0 0.0 0.0 0.00 0.00 0.00 82 1015.4
20260903113053 55 0 0.0 0.0 0.00 0.00 0.00 82 1015.4
20260903113047 55 154 0.0 0.0 0.00 0.00 0.00 82 1012.0
20260903111625 55 0 0.0 0.0 0.00 0.00 0.00 82 1015.6
20260903111546 55 154 0.0 0.0 0.00 0.00 0.00 82 1012.1
20260903110110 55 0 0.0 0.0 0.00 0.00 0.00 82 1015.6
20260903110049 55 154 0.0 0.0 0.00 0.00 0.00 83 1012.1
20260903104629 56 0 0.0 0.0 0.00 0.00 0.00 81 1015.7
20260903104543 56 154 0.0 0.0 0.00 0.00 0.00 82 1012.2
20260903103054 56 0 0.0 0.0 0.00 0.00 0.00 81 1015.9
20260903103041 56 154 0.0 0.0 0.00 0.00 0.00 82 1012.2